Location: Gila Cliff Dwellings National Monument
(33.2240°N, 108.2417°W)
Time: 16:33:50
(UTC-06:00)

Cosmos 2322 Rocket - Visible Passes

Search period start: 30 May 2015 00:00
Search period end: 09 June 2015 00:00
Orbit: 833 x 851 km, 71.0° (Epoch: 30 May)

Date Brightness Start Highest point End Pass type
(mag) Time Alt. Az. Time Alt. Az. Time Alt. Az.
30 May 5.3 05:04:45 10° NNE 05:08:29 18° ENE 05:12:25 10° E visible
30 May 5.5 21:37:37 10° W 21:40:30 14° NW 21:43:05 10° NNW visible
31 May 5.3 04:49:56 10° NNE 04:53:29 17° NE 04:57:16 10° E visible
31 May 5.5 21:22:23 10° W 21:25:29 14° NW 21:28:20 10° NNW visible
01 Jun 5.3 04:35:06 10° NNE 04:38:29 16° NE 04:42:06 10° E visible
01 Jun 5.5 21:07:10 10° W 21:10:29 15° NW 21:13:33 10° NNW visible
02 Jun 5.3 04:20:19 10° NNE 04:23:29 15° NE 04:26:54 10° E visible
02 Jun 5.5 20:51:58 10° W 20:55:29 16° NW 20:58:46 10° NNW visible
03 Jun 5.2 04:05:32 10° NNE 04:08:28 15° NE 04:11:42 10° E visible
04 Jun 5.2 03:50:46 10° NNE 03:53:28 14° NE 03:56:29 10° E visible
04 Jun 2.2 05:32:32 10° NNW 05:38:14 74° WSW 05:43:54 10° SSE visible
05 Jun 5.2 03:36:01 10° NNE 03:38:28 13° NE 03:41:13 10° E visible
05 Jun 2.2 05:17:35 10° NNW 05:23:17 78° WSW 05:28:58 10° SSE visible
06 Jun 5.2 03:21:19 10° NNE 03:23:27 12° NE 03:25:55 10° ENE visible
06 Jun 2.2 05:02:37 10° NNW 05:08:20 82° WSW 05:14:01 10° SSE visible
07 Jun 5.2 03:06:41 10° NNE 03:08:27 12° NE 03:10:34 10° ENE visible
07 Jun 2.2 04:47:39 10° NNW 04:53:23 87° WSW 04:59:05 10° SSE visible
08 Jun 5.2 02:52:07 10° NE 02:53:26 11° NE 02:55:07 10° ENE visible
08 Jun 2.2 04:32:42 10° NNW 04:38:25 89° ENE 04:44:08 10° SSE visible
